1489572000.78,31413,10.75,73708.8,-3.27,-4.09,-4.05,0,*5E
1489572002.01,31414,10.75,73704.5,-3.29,-4.21,-4.13,0,*5A
1489572003.2,31415,10.75,73704.3,-3.27,-4.13,-4.09,0,*5F
1489572004.41,31416,10.75,73692.5,-3.27,-4.25,-4.21,0,*53
1489572005.68,31417,10.75,73680.8,-3.29,-5.11,-5.11,0,*58
1489572006.96,31418,10.75,73678.8,-3.29,-5.23,-5.23,0,*57
1489572008.21,31419,10.75,73684.8,-3.33,-4.99,-4.85,0,*50
1489572009.44,31420,10.75,73694.8,-3.33,-4.25,-4.25,0,*57
1489572010.64,31421,10.75,73688.0,-3.35,-4.37,-4.29,0,*5F
1489572011.87,31422,10.75,73696.5,-3.33,-4.25,-4.25,0,*55
1489572013.1,31423,10.75,73694.0,-3.33,-4.17,-4.25,0,*55
1489572014.33,31424,10.75,73690.3,-3.33,-4.17,-4.13,0,*57
1489572015.58,31425,10.75,73686.5,-3.33,-4.09,-4.01,0,*5A
1489572016.78,31426,10.75,73690.3,-3.35,-4.17,-4.13,0,*53
1489572018.0,31427,10.75,73688.8,-3.33,-4.41,-4.41,0,*50
1489572019.26,31428,10.75,73688.8,-3.33,-4.01,-4.09,0,*57
1489572020.49,31429,10.75,73698.0,-3.33,-3.95,-3.87,0,*5D
1489572021.73,31430,10.75,73694.8,-3.33,-3.87,-3.71,0,*5F
1489572023.01,31431,10.75,73688.8,-3.33,-4.01,-4.01,0,*57
1489572024.24,31432,10.75,73692.5,-3.33,-4.13,-4.13,0,*54
1489572025.47,31433,10.75,73698.0,-3.33,-3.95,-3.83,0,*52
1489572026.74,31434,10.75,73694.5,-3.33,-3.71,-3.71,0,*52
1489572028.01,31435,10.75,73698.5,-3.29,-3.67,-3.59,0,*55
1489572029.24,31436,10.75,73692.3,-3.29,-3.91,-3.95,0,*5F
1489572030.48,31437,10.75,73692.0,-3.27,-4.69,-4.69,0,*54
1489572031.7,31438,10.75,73688.8,-3.29,-4.57,-4.45,0,*56
1489572032.93,31439,10.75,73686.5,-3.33,-4.65,-4.53,0,*5A
1489572034.16,31440,10.75,73696.5,-3.33,-4.25,-4.25,0,*51
1489572035.41,31441,10.75,73694.0,-3.33,-4.89,-4.99,0,*51
1489572036.65,31442,10.75,73668.8,-3.35,-6.23,-6.23,0,*55
1489572037.86,31443,10.75,73652.3,-3.35,-7.11,-7.15,0,*50
1489572039.11,31444,10.75,73674.3,-3.39,-5.31,-5.23,0,*5C
1489572040.35,31445,10.75,73652.0,-3.39,-4.69,-4.69,0,*5E
1489572041.55,31446,10.75,73664.8,-3.39,-4.41,-4.41,0,*5D
1489572042.78,31447,10.75,73646.5,-3.43,-4.57,-4.57,0,*51
1489572043.99,31448,10.75,73654.5,-3.43,-4.99,-4.99,0,*5E
1489572045.21,31449,10.75,73642.5,-3.43,-4.61,-4.61,0,*5F
1489572046.41,31450,10.75,73662.8,-3.39,-4.33,-4.21,0,*59
1489572047.64,31451,10.75,73672.8,-3.43,-4.33,-4.25,0,*51
1489572048.83,31452,10.75,73672.5,-3.45,-4.41,-4.37,0,*52
1489572050.06,31453,10.75,73670.3,-3.43,-4.25,-4.25,0,*54
1489572051.29,31454,10.75,73660.8,-3.43,-4.25,-4.21,0,*57
1489572052.52,31455,10.75,73666.8,-3.43,-4.25,-4.21,0,*56
1489572053.74,31456,10.75,73664.8,-3.43,-4.21,-4.17,0,*54
1489572054.94,31457,10.75,73662.0,-3.39,-4.33,-4.29,0,*56
1489572056.16,31458,10.75,73666.0,-3.39,-4.13,-4.01,0,*51
1489572057.36,31459,10.75,73668.3,-3.39,-4.29,-4.29,0,*53
1489572058.56,31460,10.75,73672.8,-3.39,-4.33,-4.33,0,*59
1489572059.76,31461,10.75,73670.0,-3.39,-4.21,-4.13,0,*59
1489572060.96,31462,10.75,73672.8,-3.39,-4.17,-4.13,0,*5F
1489572062.18,31463,10.75,73684.8,-3.39,-4.05,-4.01,0,*5E
1489572063.39,31464,10.75,73668.0,-3.39,-3.91,-3.91,0,*5D
1489572064.61,31465,10.75,73670.3,-3.37,-4.17,-4.13,0,*56
1489572065.84,31466,10.75,73672.8,-3.37,-4.05,-4.05,0,*51
1489572067.07,31467,10.75,73674.0,-3.39,-4.01,-3.91,0,*50
1489572068.28,31468,10.75,73668.0,-3.39,-3.87,-3.67,0,*5F
1489572069.52,31469,10.75,73660.8,-3.37,-3.91,-3.91,0,*5E
1489572070.8,31470,10.75,73664.8,-3.37,-4.01,-4.01,0,*56
1489572072.03,31471,10.75,73672.0,-3.37,-4.21,-4.17,0,*52
1489572073.25,31472,10.75,73672.3,-3.37,-4.17,-4.13,0,*50
1489572074.51,31473,10.75,73676.5,-3.37,-4.01,-3.91,0,*5B
1489572075.75,31474,10.75,73674.3,-3.37,-3.91,-3.75,0,*58
1489572076.97,31475,10.75,73668.3,-3.37,-3.87,-3.79,0,*52
1489572078.2,31476,10.75,73672.8,-3.39,-4.05,-4.01,0,*5A
1489572079.42,31477,10.75,73670.8,-3.37,-4.13,-4.13,0,*51
1489572080.65,31478,10.75,73668.3,-3.37,-4.33,-4.29,0,*55
1489572081.88,31479,10.75,73678.8,-3.37,-4.29,-4.21,0,*57
1489572083.12,31480,10.75,73678.3,-3.37,-4.21,-4.21,0,*59
1489572084.32,31481,10.75,73684.8,-3.39,-4.29,-4.21,0,*5E
1489572085.55,31482,10.75,73684.8,-3.37,-4.21,-4.17,0,*5E
1489572086.78,31483,10.75,73688.0,-3.37,-4.13,-4.13,0,*5A
1489572088.01,31484,10.75,73684.3,-3.37,-4.17,-4.13,0,*59
1489572089.23,31485,10.75,73684.0,-3.37,-4.17,-4.17,0,*5C
1489572090.46,31486,10.75,73684.0,-3.37,-4.21,-4.21,0,*5F
1489572091.69,31487,10.75,73688.3,-3.37,-4.13,-4.05,0,*59
1489572092.91,31488,10.75,73690.8,-3.37,-4.17,-4.17,0,*51
1489572094.11,31489,10.75,73684.8,-3.35,-4.09,-4.09,0,*52
1489572095.31,31490,10.75,73684.3,-3.35,-3.95,-3.87,0,*59
1489572096.51,31491,10.75,73682.5,-3.35,-4.13,-4.09,0,*50
1489572097.72,31492,10.75,73684.0,-3.35,-4.17,-4.13,0,*5C
1489572098.92,31493,10.75,73684.5,-3.35,-4.25,-4.25,0,*59
1489572100.13,31494,10.75,73680.0,-3.35,-4.61,-4.53,0,*5F
1489572101.32,31495,10.75,73676.8,-3.35,-4.45,-4.45,0,*5F
1489572102.53,31496,10.75,73690.8,-3.39,-4.21,-4.21,0,*50
1489572103.72,31497,10.75,73686.5,-3.39,-4.29,-4.29,0,*51
1489572104.95,31498,10.75,73692.3,-3.37,-4.29,-4.29,0,*50
1489572106.19,31499,10.75,73688.5,-3.37,-4.21,-4.21,0,*51
1489572107.44,31500,10.75,73684.8,-3.37,-4.05,-4.01,0,*54
1489572108.67,31501,10.75,73682.8,-3.37,-3.79,-3.75,0,*5D
1489572109.94,31502,10.75,73682.0,-3.37,-3.67,-3.67,0,*52
1489572111.19,31503,10.75,73682.5,-3.35,-3.71,-3.63,0,*52
1489572112.42,31504,10.75,73676.3,-3.37,-3.91,-3.91,0,*54
1489572113.65,31505,10.75,73676.0,-3.37,-4.13,-4.13,0,*55
1489572114.85,31506,10.75,73676.5,-3.35,-4.09,-4.09,0,*54
1489572116.06,31507,10.75,73682.0,-3.35,-3.83,-3.83,0,*55
1489572117.28,31508,10.75,73688.0,-3.35,-3.75,-3.63,0,*5D
1489572118.51,31509,10.75,73686.8,-3.35,-3.75,-3.71,0,*5F
1489572119.76,31510,10.75,73688.0,-3.33,-3.75,-3.71,0,*51
1489572120.99,31511,10.75,73686.0,-3.35,-3.75,-3.71,0,*56
1489572122.23,31512,10.75,73680.3,-3.35,-3.71,-3.63,0,*52
1489572123.51,31513,10.75,73684.3,-3.33,-3.63,-3.59,0,*5F
1489572124.78,31514,10.75,73692.3,-3.33,-3.63,-3.63,0,*51
1489572126.01,31515,10.75,73682.3,-3.29,-3.91,-3.91,0,*5B
1489572127.23,31516,10.75,73680.3,-3.29,-4.09,-4.09,0,*58
1489572128.48,31517,10.75,73688.3,-3.29,-3.79,-3.71,0,*51
1489572129.72,31518,10.75,73688.3,-3.33,-3.75,-3.75,0,*5D
1489572130.95,31519,10.75,73692.8,-3.33,-3.87,-3.75,0,*51
1489572132.21,31520,10.75,73690.8,-3.29,-3.67,-3.67,0,*5D
1489572133.46,31521,10.75,73690.8,-3.29,-3.79,-3.67,0,*53
1489572134.7,31522,10.75,73698.8,-3.29,-3.79,-3.71,0,*57
1489572135.93,31523,10.75,73698.8,-3.29,-3.95,-3.95,0,*5E
1489572137.16,31524,10.75,73700.8,-3.29,-4.21,-4.13,0,*58
1489572138.35,31525,10.75,73696.5,-3.27,-4.37,-4.25,0,*55
1489572139.57,31526,10.75,73696.5,-3.29,-4.49,-4.57,0,*54
1489572140.8,31527,10.75,73696.3,-3.29,-5.47,-5.39,0,*53
1489572142.03,31528,10.75,73696.8,-3.33,-6.09,-6.09,0,*5E
1489572143.25,31529,10.75,73696.3,-3.39,-5.61,-5.55,0,*52
1489572144.53,31530,10.75,73698.3,-3.37,-4.89,-4.89,0,*53
1489572145.75,31531,10.75,73686.0,-3.37,-4.65,-4.57,0,*53
1489572146.96,31532,10.75,73700.3,-3.39,-4.33,-4.29,0,*54
1489572148.19,31533,10.75,73696.8,-3.37,-4.21,-4.29,0,*58
1489572149.39,31534,10.75,73690.8,-3.39,-4.29,-4.29,0,*59
1489572150.59,31535,10.75,73690.3,-3.39,-4.29,-4.21,0,*50
1489572151.79,31536,10.75,73686.5,-3.39,-4.13,-4.13,0,*5B
1489572153.01,31537,10.75,73676.5,-3.37,-4.13,-3.91,0,*59
1489572154.25,31538,10.75,73670.8,-3.39,-4.69,-4.77,0,*5A
1489572155.45,31539,10.75,73680.0,-3.39,-4.57,-4.53,0,*50
1489572156.65,31540,10.75,73680.0,-3.39,-4.29,-4.29,0,*5A
1489572157.85,31541,10.75,73684.0,-3.39,-4.33,-4.29,0,*50
1489572159.05,31542,10.75,73688.5,-3.39,-4.13,-4.05,0,*5F
1489572160.24,31543,10.75,73692.0,-3.39,-4.05,-3.91,0,*53
1489572161.48,31544,10.75,73688.0,-3.37,-3.91,-3.87,0,*57
1489572162.73,31545,10.75,73680.8,-3.37,-4.05,-4.01,0,*55
1489572163.96,31546,10.75,73690.0,-3.37,-3.91,-3.87,0,*55
1489572165.19,31547,10.75,73684.5,-3.37,-3.87,-3.75,0,*5E
1489572166.41,31548,10.75,73686.0,-3.37,-4.13,-4.13,0,*5C
1489572167.61,31549,10.75,73688.0,-3.35,-4.65,-4.61,0,*5B
1489572168.84,31550,10.75,73686.8,-3.37,-4.65,-4.65,0,*55
1489572170.09,31551,10.75,73690.3,-3.37,-4.69,-4.57,0,*59
1489572171.33,31552,10.75,73692.5,-3.39,-4.69,-4.77,0,*56
1489572172.58,31553,10.75,73696.0,-3.39,-5.07,-5.03,0,*5C
1489572173.84,31554,10.75,73694.8,-3.43,-4.93,-4.85,0,*55
1489572175.11,31555,10.75,73696.3,-3.43,-4.81,-4.81,0,*53
1489572176.31,31556,10.75,73692.3,-3.45,-5.39,-5.39,0,*56
1489572177.52,31557,10.75,73688.3,-3.45,-6.31,-6.27,0,*50
1489572178.72,31558,10.75,73682.3,-3.45,-6.43,-6.43,0,*58
1489572180.0,31559,10.75,73664.8,-3.47,-5.31,-5.31,0,*5B
1489572181.27,31560,10.75,73674.3,-3.47,-5.27,-5.31,0,*56
1489572182.52,31561,10.75,73684.5,-3.49,-5.03,-4.89,0,*5D
1489572183.72,31562,10.75,73692.8,-3.49,-4.53,-4.53,0,*5D
1489572184.91,31563,10.75,73694.8,-3.49,-5.43,-5.43,0,*5C
1489572186.18,31564,10.75,73696.0,-3.51,-4.93,-4.73,0,*5C
1489572187.44,31565,10.75,73706.5,-3.51,-4.77,-4.77,0,*53
1489572188.65,31566,10.75,73704.8,-3.51,-4.45,-4.45,0,*50
1489572189.88,31567,10.75,73704.3,-3.51,-4.25,-4.25,0,*51
1489572191.11,31568,10.75,73712.8,-3.51,-4.13,-4.13,0,*5E
1489572192.35,31569,10.75,73712.3,-3.49,-4.69,-4.69,0,*56
1489572193.58,31570,10.75,73716.3,-3.49,-5.35,-5.31,0,*5A
1489572194.82,31571,10.75,73714.3,-3.49,-4.89,-4.89,0,*5F
1489572196.05,31572,10.75,73678.8,-3.51,-4.57,-4.57,0,*55
1489572197.32,31573,10.75,73684.3,-3.51,-4.93,-4.89,0,*5F
1489572198.54,31574,10.75,73680.5,-3.51,-4.45,-4.41,0,*57
1489572199.76,31575,10.75,73678.8,-3.51,-4.41,-4.33,0,*57
1489572200.99,31576,10.75,73694.0,-3.51,-4.33,-4.33,0,*51
1489572202.18,31577,10.75,73688.0,-3.53,-4.49,-4.41,0,*5A
1489572203.4,31578,10.75,73688.3,-3.51,-4.25,-4.17,0,*5E
1489572204.63,31579,10.75,73672.0,-3.51,-4.41,-4.33,0,*5B
1489572205.85,31580,10.75,73680.0,-3.51,-4.41,-4.41,0,*58
1489572207.12,31581,10.75,73684.8,-3.51,-4.77,-4.69,0,*56
1489572208.32,31582,10.75,73708.3,-3.53,-4.57,-4.49,0,*57
1489572209.54,31583,10.75,73736.8,-3.51,-4.25,-4.17,0,*5A
1489572210.74,31584,10.75,73702.3,-3.53,-4.33,-4.33,0,*5E
1489572212.01,31585,10.75,73696.8,-3.51,-4.93,-4.93,0,*5D
1489572213.23,31586,10.75,73690.0,-3.51,-5.43,-5.43,0,*5E
1489572214.43,31587,10.75,73670.0,-3.53,-6.43,-6.51,0,*5E
1489572215.68,31588,10.75,73686.5,-3.53,-5.73,-5.65,0,*55
1489572216.93,31589,10.75,73704.0,-3.53,-5.19,-5.11,0,*5B
1489572218.13,31590,10.75,73688.8,-3.57,-5.51,-5.51,0,*5F
1489572219.33,31591,10.75,73688.5,-3.57,-6.01,-6.01,0,*5E
1489572220.53,31592,10.75,73696.0,-3.57,-6.01,-6.01,0,*5D
1489572221.73,31593,10.75,73690.5,-3.61,-5.97,-5.97,0,*59
1489572223.01,31594,10.75,73670.5,-3.59,-5.81,-5.69,0,*53
1489572224.2,31595,10.75,73660.3,-3.61,-5.43,-5.43,0,*5F
1489572225.42,31596,10.75,73690.8,-3.61,-4.77,-4.65,0,*5F
1489572226.66,31597,10.75,73674.3,-3.61,-4.93,-4.93,0,*5D
1489572227.89,31598,10.75,73674.3,-3.61,-5.43,-5.31,0,*57
1489572229.14,31599,10.75,73668.5,-3.61,-5.03,-4.93,0,*5B
1489572230.39,31600,10.75,73670.3,-3.61,-5.03,-4.93,0,*58
1489572231.65,31601,10.75,73666.3,-3.61,-4.89,-4.89,0,*51
1489572232.89,31602,10.75,73684.8,-3.61,-4.81,-4.77,0,*5B
1489572234.13,31603,10.75,73672.5,-3.61,-4.69,-4.69,0,*53
1489572235.36,31604,10.75,73682.5,-3.61,-4.69,-4.57,0,*59
1489572236.56,31605,10.75,73680.3,-3.61,-4.41,-4.37,0,*54
1489572237.76,31606,10.75,73688.5,-3.61,-4.25,-4.29,0,*5A
1489572238.96,31607,10.75,73664.5,-3.61,-4.25,-4.17,0,*56
1489572240.19,31608,10.75,73688.3,-3.59,-4.25,-4.13,0,*56
1489572241.43,31609,10.75,73684.3,-3.61,-4.81,-4.77,0,*50
1489572242.68,31610,10.75,73646.5,-3.61,-4.89,-4.93,0,*5A
1489572243.94,31611,10.75,73674.0,-3.61,-5.19,-5.15,0,*5C
1489572245.16,31612,10.75,73660.5,-3.59,-4.53,-4.65,0,*5D
1489572246.43,31613,10.75,73662.0,-3.59,-4.85,-4.77,0,*54
1489572247.65,31614,10.75,73656.5,-3.59,-4.53,-4.41,0,*5D
1489572248.87,31615,10.75,73670.8,-3.59,-4.53,-4.53,0,*5F
1489572250.09,31616,10.75,73692.5,-3.61,-4.69,-4.65,0,*5B
1489572251.29,31617,10.75,73682.0,-3.61,-4.37,-4.13,0,*50
1489572252.51,31618,10.75,73686.3,-3.59,-4.53,-4.49,0,*59
1489572253.73,31619,10.75,73664.0,-3.59,-4.41,-4.41,0,*53
1489572255.01,31620,10.75,73654.5,-3.59,-5.65,-5.65,0,*59
1489572256.26,31621,10.75,73654.8,-3.61,-5.15,-5.15,0,*53
1489572257.49,31622,10.75,73666.8,-3.59,-4.41,-4.41,0,*5B
1489572258.69,31623,10.75,73606.8,-3.61,-4.65,-4.53,0,*54
1489572259.91,31624,10.75,73660.3,-3.59,-4.53,-4.53,0,*5D
1489572261.1,31625,10.75,73676.3,-3.61,-4.53,-4.45,0,*50
1489572262.33,31626,10.75,73702.8,-3.61,-4.01,-3.87,0,*5D
1489572263.53,31627,10.75,73676.3,-3.61,-4.53,-4.45,0,*52
1489572264.75,31628,10.75,73678.8,-3.59,-4.41,-4.41,0,*51
1489572265.97,31629,10.75,73674.3,-3.59,-4.41,-4.41,0,*50
1489572267.19,31630,10.75,73678.0,-3.59,-4.09,-3.95,0,*5A
1489572268.44,31631,10.75,73676.0,-3.59,-4.09,-4.01,0,*51
1489572269.72,31632,10.75,73672.8,-3.59,-4.01,-4.01,0,*5A
1489572270.93,31633,10.75,73674.0,-3.57,-3.95,-3.95,0,*55
1489572272.12,31634,10.75,73672.5,-3.57,-4.09,-3.95,0,*50
1489572273.35,31635,10.75,73668.0,-3.55,-3.91,-3.79,0,*57
1489572274.58,31636,10.75,73670.3,-3.55,-3.95,-3.95,0,*52
1489572275.8,31637,10.75,73674.3,-3.55,-4.05,-3.91,0,*59
1489572277.02,31638,10.75,73672.3,-3.55,-4.21,-4.17,0,*59
1489572278.22,31639,10.75,73684.5,-3.57,-4.33,-4.17,0,*59
1489572279.44,31640,10.75,73670.5,-3.55,-4.17,-4.09,0,*5C
1489572280.72,31641,10.75,73618.5,-3.55,-5.23,-5.19,0,*5B
1489572282.0,31642,10.75,73612.5,-3.55,-5.19,-5.19,0,*51
1489572283.24,31643,10.75,73642.0,-3.57,-4.89,-4.77,0,*53
1489572284.44,31644,10.75,73622.0,-3.57,-4.37,-4.41,0,*54
1489572285.71,31645,10.75,73624.8,-3.55,-4.81,-4.73,0,*5B
1489572286.93,31646,10.75,73706.3,-3.57,-5.03,-4.99,0,*55
1489572288.18,31647,10.81,73676.5,-3.57,-4.77,-4.85,0,*5B
1489572289.43,31648,10.75,73662.3,-3.57,-5.23,-5.15,0,*5C
1489572290.68,31649,10.75,73672.8,-3.57,-4.85,-4.85,0,*58
1489572291.95,31650,10.75,73678.3,-3.59,-4.85,-4.77,0,*53
1489572293.14,31651,10.75,73678.3,-3.57,-4.53,-4.49,0,*5A
1489572294.42,31652,10.81,73676.8,-3.59,-5.11,-5.03,0,*5F
1489572295.68,31653,10.75,73668.3,-3.61,-5.15,-5.15,0,*56
1489572296.94,31654,10.75,73674.3,-3.59,-4.85,-4.73,0,*53
1489572298.14,31655,10.75,73676.0,-3.61,-4.53,-4.49,0,*5B
1489572299.34,31656,10.75,73676.8,-3.61,-4.37,-4.29,0,*5C
1489572300.57,31657,10.75,73674.0,-3.59,-4.33,-4.37,0,*5D
1489572301.79,31658,10.75,73656.8,-3.59,-4.53,-4.49,0,*5D
1489572303.01,31659,10.75,73652.0,-3.59,-4.33,-4.33,0,*57
1489572304.24,31660,10.75,73666.3,-3.59,-4.33,-4.33,0,*5D
1489572305.46,31661,10.75,73674.8,-3.59,-4.49,-4.53,0,*57
1489572306.69,31662,10.75,73686.0,-3.59,-4.33,-4.33,0,*5F
1489572307.95,31663,10.75,73664.3,-3.61,-5.31,-5.27,0,*52
1489572309.2,31664,10.75,73644.8,-3.61,-5.15,-5.15,0,*52
1489572310.43,31665,10.81,73634.5,-3.57,-4.73,-4.65,0,*51
1489572311.67,31666,10.75,73642.3,-3.61,-4.81,-4.89,0,*58
1489572312.93,31667,10.75,73678.5,-3.61,-5.15,-5.07,0,*52
1489572314.18,31668,10.75,73688.3,-3.57,-4.85,-4.77,0,*56
1489572315.4,31669,10.75,73688.5,-3.59,-4.41,-4.41,0,*54
1489572316.6,31670,10.75,73692.8,-3.61,-4.37,-4.37,0,*57
1489572317.82,31671,10.81,73690.0,-3.59,-4.49,-4.41,0,*55
1489572319.06,31672,10.75,73690.5,-3.61,-4.77,-4.69,0,*5A
1489572320.29,31673,10.75,73682.5,-3.59,-4.65,-4.53,0,*5A
1489572321.48,31674,10.75,73688.8,-3.61,-4.45,-4.45,0,*53
1489572322.7,31675,10.75,73660.8,-3.59,-6.31,-6.35,0,*5D
1489572323.96,31676,10.75,73650.0,-3.61,-8.07,-8.11,0,*56
1489572325.19,31677,10.75,73634.0,-3.67,-8.37,-8.37,0,*56
1489572326.41,31678,10.81,73628.3,-3.71,-6.55,-6.69,0,*51
1489572327.63,31679,10.75,73638.3,-3.71,-6.13,-6.13,0,*5F
1489572328.82,31680,10.81,73656.0,-3.75,-5.43,-5.43,0,*5D
1489572330.1,31681,10.81,73660.3,-3.73,-5.07,-4.93,0,*56
1489572331.37,31682,10.81,73638.8,-3.73,-4.81,-4.77,0,*50
1489572332.64,31683,10.75,73618.3,-3.73,-4.81,-4.77,0,*51
1489572333.91,31684,10.75,73670.0,-3.73,-4.81,-4.77,0,*56
1489572335.11,31685,10.75,73680.0,-3.75,-4.37,-4.25,0,*5B
1489572336.33,31686,10.75,73676.0,-3.71,-3.95,-3.95,0,*5F
1489572337.56,31687,10.81,73664.8,-3.71,-4.21,-4.21,0,*5E
1489572338.77,31688,10.75,73672.0,-3.69,-4.33,-4.25,0,*5F
1489572339.97,31689,10.75,73686.0,-3.69,-4.49,-4.49,0,*59
1489572341.16,31690,10.75,73672.0,-3.69,-4.53,-4.45,0,*56
1489572342.36,31691,10.75,73672.5,-3.69,-4.65,-4.65,0,*50
1489572343.58,31692,10.75,73692.3,-3.67,-4.45,-4.45,0,*5D
1489572344.8,31693,10.75,73674.8,-3.67,-4.45,-4.41,0,*58
1489572346.02,31694,10.81,73674.8,-3.67,-4.41,-4.33,0,*5E
1489572347.25,31695,10.75,73676.8,-3.67,-4.57,-4.49,0,*55
1489572348.54,31696,10.75,73678.8,-3.67,-5.31,-5.31,0,*59
1489572349.76,31697,10.81,73680.5,-3.71,-6.73,-6.73,0,*5F
1489572351.0,31698,10.75,73592.5,-3.71,-6.31,-6.23,0,*53
1489572352.22,31699,10.81,73558.3,-3.71,-5.35,-5.35,0,*51
1489572353.47,31700,10.75,73612.8,-3.73,-5.27,-5.39,0,*5D
1489572354.75,31701,10.81,73652.0,-3.73,-5.31,-5.19,0,*59
1489572356.03,31702,10.75,73668.5,-3.73,-5.19,-5.19,0,*50
1489572357.27,31703,10.75,73680.5,-3.75,-4.77,-4.69,0,*58
1489572358.47,31704,10.81,73676.3,-3.75,-4.41,-4.49,0,*58
1489572359.69,31705,10.75,73674.0,-3.71,-4.13,-4.09,0,*5E
1489572360.91,31706,10.81,73680.0,-3.71,-4.61,-4.53,0,*57
1489572362.11,31707,10.81,73678.3,-3.69,-4.53,-4.49,0,*55
1489572363.38,31708,10.81,73672.5,-3.71,-5.11,-5.03,0,*5B
1489572364.66,31709,10.75,73658.3,-3.71,-5.89,-5.81,0,*51
1489572365.91,31710,10.81,73660.0,-3.73,-6.05,-5.93,0,*5F
1489572367.16,31711,10.75,73658.3,-3.75,-5.15,-5.03,0,*53
1489572368.36,31712,10.75,73664.0,-3.75,-4.65,-4.57,0,*56
1489572369.59,31713,10.81,73670.8,-3.73,-4.41,-4.29,0,*5E
1489572370.82,31714,10.75,73670.0,-3.73,-4.49,-4.37,0,*5E
1489572372.04,31715,10.75,73672.5,-3.73,-4.49,-4.41,0,*5E
1489572373.23,31716,10.81,73676.5,-3.75,-4.41,-4.49,0,*5B
1489572374.46,31717,10.81,73662.8,-3.73,-4.29,-4.25,0,*58
1489572375.69,31718,10.75,73666.5,-3.73,-4.29,-4.25,0,*57
1489572376.92,31719,10.75,73662.3,-3.73,-4.17,-4.13,0,*5E
1489572378.17,31720,10.75,73668.8,-3.73,-4.05,-4.01,0,*54
1489572379.38,31721,10.75,73674.5,-3.69,-4.21,-4.25,0,*5E
1489572380.59,31722,10.81,73668.0,-3.69,-4.21,-4.09,0,*53
1489572381.8,31723,10.81,73676.3,-3.69,-3.83,-3.75,0,*51
1489572383.01,31724,10.75,73676.5,-3.69,-3.83,-3.75,0,*56
1489572384.22,31725,10.75,73682.0,-3.69,-3.83,-3.75,0,*57
1489572385.42,31726,10.75,73680.5,-3.69,-3.87,-3.75,0,*50
1489572386.64,31727,10.75,73680.8,-3.67,-4.45,-4.41,0,*56
1489572387.87,31728,10.75,73676.5,-3.67,-4.61,-4.49,0,*57
1489572389.14,31729,10.75,73668.3,-3.67,-4.69,-4.69,0,*5C
1489572390.34,31730,10.81,73684.5,-3.65,-4.49,-4.49,0,*56
1489572391.56,31731,10.75,73680.5,-3.67,-4.49,-4.57,0,*5A
1489572392.81,31732,10.81,73686.8,-3.65,-4.85,-4.73,0,*5D
1489572394.06,31733,10.75,73654.5,-3.65,-5.31,-5.31,0,*55
1489572395.35,31734,10.81,73678.3,-3.67,-5.23,-5.23,0,*50
1489572396.58,31735,10.75,73680.0,-3.67,-4.57,-4.57,0,*51
1489572397.87,31736,10.75,73670.5,-3.67,-5.07,-5.07,0,*52
1489572399.15,31737,10.75,73674.5,-3.67,-4.81,-4.81,0,*53
1489572400.42,31738,10.75,73678.8,-3.67,-4.85,-4.73,0,*55
1489572401.64,31739,10.75,73674.8,-3.69,-4.65,-4.73,0,*54
1489572402.87,31740,10.75,73670.3,-3.69,-5.51,-5.69,0,*56
1489572404.12,31741,10.75,73670.0,-3.69,-5.65,-5.65,0,*5C
1489572405.4,31742,10.75,73668.8,-3.71,-5.93,-5.89,0,*5D
1489572406.62,31743,10.75,73660.0,-3.71,-6.05,-6.05,0,*57
1489572407.86,31744,10.81,73662.3,-3.73,-5.61,-5.43,0,*52
1489572409.14,31745,10.75,73662.5,-3.73,-4.69,-4.69,0,*53
1489572410.36,31746,10.75,73666.8,-3.73,-4.49,-4.41,0,*58
1489572411.58,31747,10.75,73674.8,-3.73,-4.41,-4.41,0,*51
1489572412.81,31748,10.75,73666.0,-3.73,-4.41,-4.41,0,*5E
1489572414.04,31749,10.75,73666.8,-3.73,-4.29,-4.25,0,*53
1489572415.24,31750,10.81,73684.0,-3.69,-4.33,-4.33,0,*5C
1489572416.44,31751,10.75,73678.5,-3.69,-4.37,-4.33,0,*59
1489572417.71,31752,10.75,73664.8,-3.71,-4.89,-4.89,0,*57
1489572418.91,31753,10.75,73672.0,-3.69,-4.61,-4.61,0,*5F
1489572420.13,31754,10.75,73648.5,-3.71,-4.45,-4.37,0,*54
1489572421.39,31755,10.75,73658.5,-3.71,-4.73,-4.73,0,*50
1489572422.59,31756,10.81,73676.8,-3.69,-4.53,-4.49,0,*51
1489572423.8,31757,10.75,73672.8,-3.69,-4.21,-4.21,0,*5B
1489572425.01,31758,10.75,73674.0,-3.69,-4.25,-4.21,0,*50
1489572426.26,31759,10.75,73670.3,-3.69,-4.77,-4.77,0,*55
1489572427.51,31760,10.75,73672.0,-3.69,-5.11,-5.15,0,*5B
1489572428.75,31761,10.75,73682.8,-3.69,-4.85,-4.77,0,*53
1489572430.01,31762,10.75,73658.3,-3.71,-4.77,-4.73,0,*50
1489572431.22,31763,10.75,73642.5,-3.71,-4.99,-4.99,0,*55
1489572432.45,31764,10.75,73672.8,-3.71,-4.65,-4.65,0,*52
1489572433.66,31765,10.75,73664.5,-3.71,-4.37,-4.33,0,*57
1489572434.89,31766,10.75,73676.8,-3.71,-4.25,-4.21,0,*54
1489572436.12,31767,10.75,73678.8,-3.71,-4.25,-4.21,0,*55
1489572437.35,31768,10.75,73680.5,-3.71,-4.25,-4.25,0,*5E
1489572438.56,31769,10.75,73680.8,-3.69,-4.21,-4.13,0,*57
1489572439.76,31770,10.75,73682.5,-3.69,-3.87,-3.87,0,*5E
1489572440.96,31771,10.75,73676.3,-3.69,-3.87,-3.83,0,*5B
1489572442.23,31772,10.75,73674.8,-3.67,-3.71,-3.63,0,*51
1489572443.48,31773,10.75,73672.3,-3.67,-3.79,-3.71,0,*5B
1489572444.69,31774,10.75,73668.8,-3.61,-3.91,-3.87,0,*55
1489572445.9,31775,10.75,73668.0,-3.65,-3.95,-3.91,0,*53
1489572447.17,31776,10.75,73668.5,-3.59,-3.71,-3.59,0,*51
1489572448.42,31777,10.75,73676.8,-3.61,-3.59,-3.59,0,*51
1489572449.65,31778,10.75,73678.3,-3.59,-3.75,-3.75,0,*55
1489572450.89,31779,10.75,73682.5,-3.59,-3.83,-3.75,0,*5D
1489572452.14,31780,10.75,73664.5,-3.59,-4.01,-3.95,0,*58
1489572453.37,31781,10.81,73690.0,-3.59,-4.61,-4.53,0,*52
1489572454.65,31782,10.75,73650.8,-3.59,-5.03,-5.19,0,*5B
1489572455.88,31783,10.75,73632.3,-3.61,-5.61,-5.55,0,*5D
1489572457.08,31784,10.75,73654.5,-3.61,-4.65,-4.57,0,*5C
1489572458.27,31785,10.75,73666.8,-3.61,-4.45,-4.41,0,*58
1489572459.47,31786,10.75,73662.8,-3.61,-4.41,-4.41,0,*5F
1489572460.71,31787,10.75,73660.5,-3.61,-4.85,-4.73,0,*57
1489572461.94,31788,10.75,73650.3,-3.65,-5.31,-5.35,0,*51
1489572463.19,31789,10.75,73666.3,-3.65,-4.81,-4.73,0,*59
1489572464.39,31790,10.75,73644.3,-3.65,-4.41,-4.29,0,*52
1489572465.59,31791,10.75,73670.0,-3.65,-4.41,-4.29,0,*53
1489572466.78,31792,10.81,73686.0,-3.65,-4.45,-4.33,0,*5F
1489572467.98,31793,10.75,73662.0,-3.65,-4.17,-4.09,0,*50
1489572469.17,31794,10.75,73652.0,-3.65,-4.45,-4.45,0,*58
1489572470.37,31795,10.75,73660.5,-3.65,-4.49,-4.45,0,*55
1489572471.59,31796,10.75,73670.0,-3.59,-4.49,-4.37,0,*5C
1489572472.78,31797,10.75,73684.0,-3.61,-4.45,-4.41,0,*5B
1489572474.04,31798,10.75,73686.0,-3.61,-5.03,-5.03,0,*50
1489572475.28,31799,10.75,73690.8,-3.61,-4.93,-4.93,0,*51
1489572476.54,31800,10.75,73682.0,-3.61,-5.19,-5.15,0,*52
1489572477.74,31801,10.75,73668.3,-3.65,-5.51,-5.51,0,*5B
1489572479.0,31802,10.75,73658.8,-3.67,-6.77,-6.63,0,*5F
1489572480.28,31803,10.75,73658.3,-3.67,-5.65,-5.61,0,*5F
1489572481.53,31804,10.75,73676.5,-3.69,-4.89,-4.77,0,*53
1489572482.73,31805,10.75,73674.3,-3.69,-4.53,-4.53,0,*53
1489572483.93,31806,10.75,73662.0,-3.69,-4.49,-4.49,0,*50
1489572485.13,31807,10.75,73676.5,-3.69,-4.33,-4.21,0,*52
1489572486.33,31808,10.81,73690.3,-3.69,-4.37,-4.25,0,*5D
1489572487.55,31809,10.75,73672.5,-3.65,-4.21,-4.21,0,*53
1489572488.77,31810,10.75,73666.8,-3.67,-4.41,-4.33,0,*5C
1489572489.99,31811,10.75,73664.0,-3.67,-4.45,-4.41,0,*5C
1489572491.22,31812,10.75,73648.5,-3.67,-4.49,-4.57,0,*54
1489572492.45,31813,10.75,73660.3,-3.67,-4.57,-4.57,0,*5A
1489572493.7,31814,10.75,73680.0,-3.65,-4.81,-4.85,0,*5B
1489572494.93,31815,10.75,73714.5,-3.67,-4.57,-4.49,0,*53
1489572496.16,31816,10.75,73666.3,-3.67,-4.57,-4.57,0,*5F
1489572497.39,31817,10.75,73678.8,-3.67,-4.61,-4.57,0,*5B
1489572498.66,31818,10.75,73670.8,-3.67,-4.69,-4.69,0,*51
1489572499.88,31819,10.75,73666.8,-3.67,-4.49,-4.49,0,*50
1489572501.12,31820,10.75,73668.5,-3.67,-4.33,-4.29,0,*51
1489572502.35,31821,10.75,73672.3,-3.67,-4.33,-4.29,0,*50
1489572503.55,31822,10.75,73674.3,-3.65,-4.21,-4.17,0,*5F
1489572504.77,31823,10.75,73678.5,-3.67,-4.45,-4.45,0,*59
1489572505.99,31824,10.75,73672.5,-3.67,-4.49,-4.45,0,*52
1489572507.21,31825,10.75,73674.0,-3.67,-4.49,-4.45,0,*53
1489572508.43,31826,10.75,73674.0,-3.67,-4.61,-4.49,0,*56